QPF
0.00 0.00 0.01 0.00 0.01 0.02 0.01 0.01 0.00 0.00 0.01 0.01 0.01 0.01 0.02 0.04 0.03 0.01 0.01 0.02 0.02 0.02 0.02 0.01 0.02 0.01 0.02 0.03 0.03 0.03 0.03 0.04 0.06 0.03 0.02 0.03 0.04 0.04 0.04 0.04 0.04 0.03 0.03 0.03
0.00 0.00 0.01 0.00 0.00 0.01 0.00 0.00 0.00 0.00 0.01 0.01 0.01 0.01 0.01 0.02 0.02 0.01 0.01 0.02 0.02 0.02 0.01 0.01 0.02 0.02 0.02 0.03 0.03 0.02 0.02 0.01 0.01 0.02 0.03 0.03 0.04 0.04 0.05 0.05 0.05 0.05 0.05 0.05
0.00 0.00 0.01 0.01 0.00 0.00 0.00 0.00 0.00 0.00 0.01 0.01 0.01 0.01 0.01 0.02 0.02 0.01 0.01 0.01 0.01 0.01 0.01 0.01 0.02 0.03 0.03 0.03 0.03 0.02 0.01 0.01 0.01 0.01 0.02 0.02 0.04 0.05 0.05 0.05 0.05 0.05 0.04 0.05
0.00 0.00 0.01 0.01 0.01 0.00 0.00 0.00 0.00 0.00 0.00 0.01 0.02 0.02 0.02 0.02 0.02 0.01 0.01 0.01 0.02 0.02 0.02 0.02 0.03 0.03 0.03 0.03 0.03 0.02 0.02 0.02 0.02 0.02 0.02 0.03 0.04 0.08 0.09 0.09 0.07 0.06 0.05 0.05
0.00 0.01 0.01 0.01 0.01 0.00 0.00 0.00 0.01 0.01 0.01 0.01 0.02 0.05 0.04 0.02 0.02 0.02 0.01 0.02 0.02 0.02 0.02 0.02 0.03 0.02 0.02 0.02 0.02 0.02 0.02 0.02 0.02 0.03 0.03 0.04 0.05 0.08 0.12 0.12 0.12 0.11 0.10 0.10
0.00 0.01 0.01 0.01 0.01 0.00 0.00 0.01 0.01 0.01 0.02 0.03 0.03 0.04 0.03 0.02 0.01 0.01 0.01 0.01 0.02 0.03 0.02 0.02 0.02 0.02 0.02 0.02 0.01 0.01 0.01 0.02 0.03 0.03 0.04 0.05 0.07 0.09 0.10 0.09 0.10 0.11 0.12 0.14
0.00 0.01 0.01 0.01 0.01 0.01 0.01 0.02 0.03 0.04 0.03 0.02 0.02 0.03 0.03 0.02 0.02 0.02 0.02 0.01 0.02 0.02 0.02 0.01 0.01 0.01 0.01 0.01 0.01 0.01 0.01 0.03 0.04 0.04 0.04 0.05 0.06 0.07 0.07 0.09 0.11 0.12 0.12 0.13
0.01 0.01 0.01 0.01 0.01 0.02 0.02 0.02 0.04 0.07 0.07 0.03 0.02 0.02 0.02 0.02 0.02 0.02 0.02 0.01 0.01 0.01 0.01 0.01 0.00 0.00 0.01 0.01 0.01 0.02 0.02 0.03 0.04 0.04 0.04 0.04 0.05 0.05 0.07 0.09 0.10 0.10 0.10 0.08
0.02 0.02 0.01 0.01 0.02 0.02 0.01 0.01 0.01 0.02 0.03 0.03 0.02 0.01 0.03 0.03 0.03 0.02 0.02 0.01 0.01 0.01 0.01 0.00 0.00 0.00 0.01 0.01 0.01 0.02 0.03 0.03 0.03 0.03 0.03 0.04 0.04 0.04 0.04 0.05 0.06 0.06 0.07 0.05
0.02 0.02 0.01 0.02 0.02 0.02 0.01 0.01 0.01 0.01 0.02 0.03 0.04 0.03 0.03 0.04 0.02 0.01 0.01 0.01 0.01 0.01 0.01 0.01 0.01 0.01 0.01 0.01 0.01 0.01 0.01 0.01 0.02 0.02 0.03 0.04 0.04 0.03 0.04 0.05 0.06 0.06 0.06 0.06
0.01 0.02 0.02 0.02 0.02 0.02 0.01 0.01 0.01 0.01 0.01 0.01 0.02 0.02 0.02 0.03 0.03 0.02 0.02 0.02 0.01 0.01 0.00 0.00 0.01 0.01 0.01 0.01 0.01 0.01 0.01 0.01 0.01 0.01 0.02 0.03 0.04 0.03 0.03 0.05 0.07 0.08 0.08 0.08
0.01 0.03 0.03 0.03 0.02 0.01 0.01 0.01 0.01 0.01 0.02 0.02 0.02 0.02 0.03 0.03 0.04 0.03 0.02 0.02 0.01 0.01 0.01 0.01 0.00 0.00 0.00 0.01 0.01 0.01 0.01 0.02 0.02 0.02 0.03 0.03 0.03 0.04 0.03 0.03 0.04 0.06 0.09 0.11
0.02 0.02 0.03 0.02 0.02 0.02 0.02 0.01 0.01 0.01 0.02 0.02 0.03 0.04 0.04 0.05 0.04 0.02 0.02 0.02 0.02 0.02 0.01 0.01 0.01 0.01 0.01 0.01 0.01 0.01 0.01 0.02 0.03 0.04 0.03 0.02 0.02 0.02 0.02 0.02 0.02 0.04 0.05 0.07
0.01 0.02 0.02 0.02 0.01 0.01 0.02 0.02 0.03 0.04 0.03 0.03 0.02 0.02 0.03 0.02 0.01 0.01 0.01 0.01 0.01 0.01 0.01 0.01 0.01 0.01 0.01 0.01 0.01 0.02 0.02 0.03 0.03 0.03 0.03 0.01 0.02 0.02 0.02 0.02 0.02 0.02 0.02 0.03
0.01 0.01 0.02 0.02 0.01 0.01 0.02 0.02 0.04 0.06 0.08 0.04 0.03 0.02 0.02 0.01 0.00 0.00 0.00 0.01 0.01 0.01 0.01 0.01 0.01 0.01 0.02 0.02 0.02 0.04 0.03 0.03 0.02 0.02 0.02 0.01 0.01 0.01 0.01 0.02 0.02 0.02 0.01 0.02
0.01 0.00 0.01 0.01 0.01 0.03 0.03 0.03 0.05 0.09 0.14 0.08 0.04 0.02 0.01 0.01 0.01 0.00 0.00 0.01 0.01 0.01 0.01 0.01 0.01 0.01 0.01 0.02 0.02 0.03 0.03 0.02 0.02 0.02 0.02 0.02 0.02 0.02 0.02 0.02 0.02 0.02 0.02 0.02
0.01 0.01 0.01 0.01 0.01 0.01 0.02 0.03 0.08 0.10 0.14 0.08 0.04 0.02 0.01 0.01 0.01 0.01 0.01 0.01 0.01 0.01 0.01 0.01 0.01 0.01 0.01 0.02 0.02 0.02 0.02 0.02 0.03 0.03 0.02 0.02 0.02 0.03 0.03 0.03 0.03 0.03 0.02 0.02
0.01 0.01 0.01 0.01 0.01 0.01 0.02 0.03 0.09 0.12 0.08 0.08 0.06 0.03 0.02 0.02 0.01 0.02 0.02 0.02 0.02 0.02 0.01 0.02 0.02 0.02 0.02 0.01 0.01 0.01 0.01 0.02 0.04 0.06 0.05 0.04 0.03 0.03 0.02 0.02 0.02 0.02 0.01 0.01
0.01 0.01 0.01 0.01 0.01 0.01 0.01 0.02 0.13 0.15 0.07 0.04 0.05 0.03 0.02 0.02 0.02 0.03 0.02 0.02 0.02 0.02 0.02 0.02 0.02 0.02 0.02 0.02 0.02 0.01 0.01 0.01 0.02 0.04 0.04 0.05 0.04 0.03 0.03 0.02 0.02 0.01 0.01 0.01
0.01 0.01 0.01 0.01 0.01 0.01 0.02 0.03 0.10 0.14 0.08 0.05 0.05 0.03 0.02 0.02 0.02 0.03 0.04 0.05 0.04 0.03 0.02 0.01 0.01 0.01 0.01 0.01 0.01 0.01 0.01 0.01 0.02 0.03 0.03 0.04 0.04 0.03 0.03 0.04 0.04 0.03 0.02 0.01
0.02 0.01 0.01 0.02 0.03 0.03 0.03 0.04 0.05 0.08 0.07 0.07 0.05 0.04 0.03 0.03 0.03 0.03 0.04 0.05 0.05 0.03 0.01 0.01 0.01 0.01 0.00 0.00 0.00 0.00 0.01 0.01 0.02 0.01 0.01 0.01 0.01 0.01 0.01 0.01 0.01 0.01 0.01 0.01
0.03 0.03 0.02 0.03 0.03 0.04 0.04 0.04 0.05 0.06 0.07 0.07 0.06 0.05 0.04 0.05 0.04 0.03 0.01 0.01 0.03 0.03 0.02 0.01 0.01 0.01 0.00 0.00 0.00 0.00 0.01 0.01 0.01 0.00 0.00 0.00 0.00 0.01 0.01 0.01 0.01 0.01 0.01 0.01
0.04 0.04 0.03 0.03 0.03 0.03 0.04 0.05 0.04 0.06 0.06 0.05 0.06 0.05 0.05 0.05 0.04 0.04 0.03 0.01 0.01 0.02 0.03 0.02 0.02 0.02 0.01 0.01 0.01 0.01 0.01 0.01 0.01 0.01 0.00 0.00 0.00 0.01 0.01 0.01 0.01 0.01 0.01 0.01
0.03 0.03 0.04 0.05 0.05 0.04 0.05 0.06 0.05 0.05 0.05 0.04 0.04 0.04 0.03 0.03 0.04 0.04 0.03 0.02 0.01 0.01 0.01 0.02 0.02 0.03 0.02 0.01 0.01 0.01 0.01 0.01 0.01 0.02 0.02 0.01 0.01 0.01 0.01 0.01 0.01 0.01 0.01 0.01
0.04 0.03 0.04 0.05 0.05 0.04 0.04 0.05 0.04 0.03 0.03 0.03 0.03 0.02 0.02 0.02 0.02 0.02 0.02 0.01 0.01 0.01 0.01 0.01 0.02 0.02 0.02 0.02 0.02 0.02 0.02 0.02 0.01 0.02 0.03 0.05 0.04 0.03 0.02 0.02 0.02 0.02 0.02 0.01
0.04 0.04 0.04 0.03 0.03 0.02 0.02 0.03 0.04 0.03 0.02 0.02 0.02 0.02 0.02 0.02 0.01 0.01 0.01 0.01 0.01 0.02 0.01 0.01 0.01 0.01 0.02 0.01 0.01 0.01 0.01 0.02 0.03 0.02 0.02 0.05 0.07 0.06 0.05 0.04 0.04 0.04 0.04 0.03
0.03 0.02 0.02 0.02 0.01 0.02 0.03 0.03 0.02 0.02 0.02 0.02 0.02 0.02 0.02 0.02 0.02 0.02 0.01 0.01 0.02 0.02 0.01 0.01 0.01 0.01 0.01 0.01 0.01 0.01 0.01 0.02 0.02 0.02 0.02 0.02 0.05 0.07 0.08 0.07 0.06 0.06 0.06 0.06
MSLP
1005.72 1006.02 1006.38 1006.78 1007.19 1007.55 1007.82 1007.95 1007.92 1007.76 1007.49 1007.17 1006.88 1006.69 1006.63 1006.74 1007.02 1007.42 1007.89 1008.37 1008.80 1009.13 1009.36 1009.48 1009.52 1009.53 1009.52 1009.55 1009.61 1009.71 1009.81 1009.89 1009.91 1009.84 1009.68 1009.42 1009.10 1008.74 1008.39 1008.07 1007.80 1007.60 1007.45 1007.35
1005.64 1005.93 1006.22 1006.49 1006.72 1006.87 1006.94 1006.92 1006.81 1006.64 1006.46 1006.31 1006.23 1006.27 1006.44 1006.74 1007.14 1007.59 1008.05 1008.46 1008.80 1009.03 1009.17 1009.24 1009.27 1009.30 1009.35 1009.46 1009.60 1009.77 1009.93 1010.04 1010.06 1009.97 1009.77 1009.46 1009.07 1008.66 1008.25 1007.89 1007.60 1007.38 1007.24 1007.14
1005.72 1006.02 1006.27 1006.46 1006.56 1006.57 1006.50 1006.36 1006.19 1006.03 1005.91 1005.87 1005.95 1006.16 1006.49 1006.90 1007.36 1007.83 1008.25 1008.58 1008.82 1008.95 1009.01 1009.03 1009.04 1009.08 1009.18 1009.35 1009.56 1009.78 1009.97 1010.10 1010.11 1009.99 1009.74 1009.38 1008.95 1008.49 1008.06 1007.67 1007.37 1007.16 1007.03 1006.96
1005.90 1006.20 1006.44 1006.58 1006.62 1006.55 1006.39 1006.19 1005.99 1005.84 1005.77 1005.82 1006.00 1006.31 1006.72 1007.20 1007.68 1008.12 1008.48 1008.73 1008.87 1008.92 1008.90 1008.87 1008.85 1008.90 1009.03 1009.22 1009.46 1009.71 1009.91 1010.02 1010.01 1009.86 1009.57 1009.17 1008.70 1008.22 1007.77 1007.39 1007.10 1006.91 1006.81 1006.78
1006.07 1006.37 1006.59 1006.71 1006.72 1006.62 1006.45 1006.24 1006.05 1005.91 1005.89 1006.00 1006.25 1006.62 1007.07 1007.56 1008.03 1008.43 1008.72 1008.90 1008.96 1008.93 1008.85 1008.77 1008.74 1008.77 1008.90 1009.09 1009.33 1009.56 1009.74 1009.82 1009.77 1009.57 1009.24 1008.81 1008.32 1007.83 1007.39 1007.03 1006.77 1006.62 1006.56 1006.57
1006.14 1006.39 1006.58 1006.69 1006.70 1006.62 1006.47 1006.30 1006.15 1006.08 1006.11 1006.27 1006.56 1006.96 1007.43 1007.91 1008.35 1008.71 1008.95 1009.06 1009.06 1008.98 1008.86 1008.75 1008.69 1008.70 1008.80 1008.97 1009.17 1009.36 1009.49 1009.52 1009.42 1009.17 1008.81 1008.35 1007.86 1007.38 1006.95 1006.62 1006.40 1006.29 1006.28 1006.32
1006.03 1006.19 1006.33 1006.43 1006.46 1006.42 1006.34 1006.24 1006.18 1006.18 1006.28 1006.51 1006.84 1007.26 1007.73 1008.20 1008.61 1008.93 1009.14 1009.21 1009.18 1009.07 1008.92 1008.79 1008.70 1008.69 1008.75 1008.87 1009.02 1009.14 1009.20 1009.16 1009.00 1008.71 1008.31 1007.85 1007.36 1006.89 1006.49 1006.20 1006.02 1005.95 1005.97 1006.04
1005.75 1005.78 1005.85 1005.92 1005.98 1006.00 1006.01 1006.02 1006.06 1006.17 1006.36 1006.66 1007.04 1007.49 1007.96 1008.42 1008.81 1009.11 1009.29 1009.35 1009.31 1009.19 1009.03 1008.89 1008.78 1008.74 1008.75 1008.81 1008.88 1008.92 1008.91 1008.79 1008.57 1008.24 1007.82 1007.35 1006.86 1006.42 1006.05 1005.79 1005.64 1005.59 1005.64 1005.73
1005.32 1005.22 1005.21 1005.26 1005.34 1005.44 1005.55 1005.68 1005.86 1006.08 1006.38 1006.75 1007.18 1007.66 1008.14 1008.59 1008.98 1009.27 1009.44 1009.50 1009.46 1009.35 1009.19 1009.04 1008.91 1008.83 1008.79 1008.77 1008.77 1008.73 1008.63 1008.45 1008.17 1007.80 1007.36 1006.88 1006.41 1005.98 1005.63 1005.39 1005.26 1005.24 1005.30 1005.40
1004.84 1004.63 1004.55 1004.59 1004.71 1004.88 1005.10 1005.36 1005.66 1006.01 1006.41 1006.85 1007.34 1007.84 1008.33 1008.78 1009.16 1009.44 1009.61 1009.68 1009.64 1009.54 1009.39 1009.23 1009.08 1008.95 1008.85 1008.76 1008.67 1008.55 1008.37 1008.11 1007.78 1007.38 1006.92 1006.44 1005.97 1005.56 1005.23 1005.00 1004.88 1004.86 1004.93 1005.05
1004.41 1004.13 1004.02 1004.06 1004.23 1004.49 1004.82 1005.20 1005.62 1006.07 1006.55 1007.06 1007.58 1008.10 1008.59 1009.03 1009.39 1009.66 1009.83 1009.89 1009.86 1009.76 1009.61 1009.44 1009.26 1009.08 1008.91 1008.75 1008.57 1008.36 1008.10 1007.78 1007.40 1006.96 1006.49 1006.00 1005.54 1005.13 1004.81 1004.58 1004.46 1004.44 1004.52 1004.65
1004.13 1003.83 1003.74 1003.82 1004.05 1004.40 1004.83 1005.31 1005.83 1006.36 1006.91 1007.45 1007.98 1008.49 1008.96 1009.36 1009.70 1009.94 1010.09 1010.14 1010.10 1009.99 1009.83 1009.63 1009.41 1009.17 1008.94 1008.69 1008.42 1008.13 1007.79 1007.41 1006.98 1006.51 1006.02 1005.53 1005.07 1004.66 1004.34 1004.11 1003.99 1003.97 1004.05 1004.20
1004.04 1003.79 1003.76 1003.91 1004.23 1004.66 1005.17 1005.74 1006.32 1006.90 1007.47 1008.02 1008.53 1009.00 1009.42 1009.78 1010.06 1010.26 1010.37 1010.39 1010.33 1010.20 1010.00 1009.76 1009.49 1009.20 1008.88 1008.55 1008.20 1007.83 1007.42 1006.98 1006.50 1006.01 1005.50 1005.00 1004.54 1004.14 1003.81 1003.58 1003.46 1003.44 1003.52 1003.69
1004.14 1004.00 1004.07 1004.32 1004.72 1005.24 1005.82 1006.44 1007.06 1007.65 1008.21 1008.72 1009.18 1009.59 1009.94 1010.22 1010.43 1010.57 1010.63 1010.61 1010.51 1010.33 1010.10 1009.81 1009.48 1009.11 1008.72 1008.31 1007.88 1007.43 1006.96 1006.47 1005.96 1005.44 1004.93 1004.43 1003.98 1003.58 1003.26 1003.03 1002.91 1002.89 1002.98 1003.17
1004.39 1004.40 1004.60 1004.96 1005.46 1006.05 1006.69 1007.33 1007.95 1008.52 1009.03 1009.48 1009.86 1010.18 1010.43 1010.63 1010.76 1010.82 1010.82 1010.74 1010.59 1010.37 1010.08 1009.74 1009.34 1008.91 1008.45 1007.97 1007.47 1006.96 1006.44 1005.92 1005.39 1004.87 1004.36 1003.88 1003.44 1003.05 1002.75 1002.52 1002.40 1002.39 1002.49 1002.69
1004.74 1004.91 1005.26 1005.74 1006.33 1006.98 1007.64 1008.28 1008.87 1009.39 1009.83 1010.19 1010.48 1010.70 1010.85 1010.95 1010.99 1010.98 1010.90 1010.76 1010.55 1010.28 1009.94 1009.54 1009.09 1008.60 1008.09 1007.55 1007.00 1006.46 1005.91 1005.38 1004.85 1004.35 1003.86 1003.41 1003.00 1002.65 1002.36 1002.15 1002.04 1002.03 1002.13 1002.33
1005.14 1005.47 1005.95 1006.55 1007.21 1007.89 1008.56 1009.18 1009.72 1010.17 1010.53 1010.80 1010.98 1011.10 1011.15 1011.16 1011.12 1011.02 1010.88 1010.68 1010.41 1010.09 1009.70 1009.25 1008.76 1008.23 1007.67 1007.10 1006.53 1005.97 1005.43 1004.91 1004.42 1003.96 1003.52 1003.12 1002.77 1002.45 1002.20 1002.02 1001.91 1001.91 1001.99 1002.18
1005.54 1006.02 1006.62 1007.30 1008.02 1008.72 1009.38 1009.96 1010.44 1010.82 1011.09 1011.26 1011.35 1011.38 1011.34 1011.27 1011.15 1010.99 1010.79 1010.53 1010.22 1009.85 1009.42 1008.93 1008.40 1007.84 1007.27 1006.69 1006.12 1005.58 1005.07 1004.60 1004.17 1003.77 1003.41 1003.09 1002.79 1002.54 1002.34 1002.18 1002.09 1002.08 1002.15 1002.31
1005.93 1006.54 1007.23 1007.97 1008.72 1009.42 1010.05 1010.59 1011.00 1011.31 1011.50 1011.60 1011.61 1011.56 1011.46 1011.32 1011.15 1010.93 1010.68 1010.38 1010.03 1009.63 1009.16 1008.65 1008.11 1007.54 1006.96 1006.40 1005.86 1005.37 1004.91 1004.51 1004.16 1003.85 1003.58 1003.34 1003.13 1002.95 1002.79 1002.67 1002.59 1002.57 1002.62 1002.75
1006.32 1007.01 1007.77 1008.55 1009.30 1009.99 1010.59 1011.07 1011.43 1011.67 1011.80 1011.84 1011.80 1011.70 1011.56 1011.38 1011.17 1010.93 1010.64 1010.31 1009.94 1009.51 1009.03 1008.50 1007.95 1007.39 1006.83 1006.30 1005.81 1005.37 1004.99 1004.68 1004.42 1004.20 1004.03 1003.88 1003.75 1003.63 1003.52 1003.43 1003.37 1003.34 1003.37 1003.45
1006.71 1007.47 1008.26 1009.05 1009.79 1010.45 1011.00 1011.44 1011.75 1011.94 1012.03 1012.03 1011.97 1011.85 1011.69 1011.50 1011.28 1011.02 1010.73 1010.39 1009.99 1009.55 1009.07 1008.54 1008.00 1007.45 1006.92 1006.43 1006.00 1005.63 1005.32 1005.09 1004.91 1004.79 1004.70 1004.63 1004.57 1004.51 1004.45 1004.38 1004.33 1004.29 1004.29 1004.34
1007.13 1007.91 1008.71 1009.48 1010.19 1010.81 1011.32 1011.71 1011.98 1012.14 1012.21 1012.20 1012.14 1012.02 1011.88 1011.70 1011.49 1011.24 1010.95 1010.62 1010.23 1009.79 1009.31 1008.80 1008.28 1007.76 1007.26 1006.82 1006.43 1006.12 1005.89 1005.72 1005.62 1005.57 1005.54 1005.53 1005.52 1005.49 1005.46 1005.41 1005.35 1005.31 1005.28 1005.29
1007.56 1008.34 1009.12 1009.85 1010.51 1011.07 1011.53 1011.88 1012.12 1012.27 1012.34 1012.35 1012.30 1012.22 1012.11 1011.96 1011.79 1011.57 1011.31 1011.00 1010.63 1010.22 1009.76 1009.27 1008.78 1008.29 1007.84 1007.43 1007.10 1006.84 1006.65 1006.54 1006.48 1006.47 1006.48 1006.49 1006.50 1006.49 1006.46 1006.40 1006.34 1006.27 1006.22 1006.21
1008.00 1008.74 1009.47 1010.14 1010.73 1011.24 1011.64 1011.95 1012.17 1012.32 1012.40 1012.43 1012.43 1012.39 1012.33 1012.24 1012.12 1011.96 1011.74 1011.47 1011.15 1010.77 1010.35 1009.90 1009.45 1009.01 1008.60 1008.24 1007.95 1007.72 1007.57 1007.48 1007.44 1007.44 1007.45 1007.46 1007.46 1007.43 1007.37 1007.30 1007.20 1007.11 1007.04 1007.00
1008.40 1009.08 1009.73 1010.33 1010.85 1011.29 1011.64 1011.91 1012.12 1012.27 1012.37 1012.44 1012.48 1012.51 1012.51 1012.49 1012.43 1012.32 1012.17 1011.96 1011.69 1011.37 1011.01 1010.62 1010.22 1009.84 1009.48 1009.17 1008.91 1008.72 1008.59 1008.50 1008.46 1008.44 1008.42 1008.40 1008.35 1008.28 1008.19 1008.07 1007.94 1007.81 1007.71 1007.65
1008.73 1009.33 1009.89 1010.40 1010.84 1011.21 1011.51 1011.76 1011.95 1012.10 1012.23 1012.34 1012.44 1012.52 1012.59 1012.63 1012.64 1012.61 1012.52 1012.38 1012.18 1011.94 1011.65 1011.33 1011.01 1010.69 1010.40 1010.14 1009.93 1009.76 1009.64 1009.55 1009.49 1009.44 1009.38 1009.31 1009.20 1009.07 1008.92 1008.74 1008.56 1008.39 1008.26 1008.16
1008.96 1009.47 1009.94 1010.36 1010.72 1011.03 1011.29 1011.50 1011.69 1011.85 1012.00 1012.15 1012.29 1012.43 1012.55 1012.66 1012.73 1012.76 1012.74 1012.67 1012.55 1012.39 1012.18 1011.96 1011.72 1011.49 1011.27 1011.08 1010.92 1010.79 1010.69 1010.60 1010.52 1010.44 1010.33 1010.20 1010.04 1009.84 1009.62 1009.39 1009.15 1008.94 1008.76 1008.63
Thickness
5774 5783 5786 5784 5785 5785 5776 5767 5755 5759 5761 5769 5777 5779 5779 5779 5777 5774 5771 5769 5767 5763 5761 5758 5755 5752 5750 5747 5744 5741 5737 5733 5730 5729 5727 5725 5722 5720 5718 5716 5714 5712 5709 5708
5767 5780 5781 5778 5782 5783 5780 5777 5770 5766 5762 5776 5779 5778 5776 5774 5772 5768 5766 5765 5763 5760 5756 5753 5750 5747 5745 5742 5738 5735 5731 5728 5726 5724 5721 5719 5717 5714 5712 5709 5707 5705 5702 5701
5744 5762 5765 5753 5770 5775 5772 5776 5772 5759 5764 5773 5771 5770 5770 5770 5767 5765 5764 5762 5759 5756 5753 5750 5747 5744 5740 5737 5734 5730 5726 5723 5720 5718 5715 5713 5712 5708 5705 5703 5700 5698 5696 5694
5734 5741 5730 5751 5778 5781 5774 5771 5774 5771 5772 5774 5772 5769 5768 5768 5765 5761 5761 5758 5755 5752 5749 5746 5743 5740 5736 5732 5728 5724 5721 5718 5715 5713 5710 5708 5705 5702 5699 5697 5694 5691 5688 5686
5721 5719 5729 5754 5770 5772 5762 5753 5767 5766 5766 5767 5768 5761 5756 5762 5763 5759 5757 5754 5751 5749 5746 5742 5738 5735 5731 5725 5722 5718 5715 5712 5710 5707 5704 5701 5698 5695 5693 5690 5687 5685 5681 5679
5719 5717 5714 5741 5769 5779 5764 5738 5761 5764 5760 5757 5755 5738 5739 5754 5756 5754 5751 5749 5746 5743 5740 5736 5733 5729 5724 5719 5715 5712 5710 5708 5705 5702 5699 5695 5692 5690 5687 5684 5681 5678 5675 5673
5715 5714 5722 5751 5768 5770 5735 5733 5757 5759 5757 5753 5745 5743 5745 5748 5747 5745 5743 5741 5739 5736 5732 5729 5727 5723 5717 5713 5709 5708 5706 5703 5699 5696 5693 5690 5687 5684 5681 5678 5674 5671 5669 5666
5708 5705 5713 5754 5758 5746 5742 5754 5756 5755 5754 5750 5746 5744 5743 5741 5738 5736 5734 5732 5731 5727 5723 5721 5719 5715 5710 5705 5704 5703 5699 5695 5691 5688 5686 5684 5679 5676 5674 5670 5667 5664 5661 5659
5715 5717 5737 5750 5754 5756 5757 5753 5753 5751 5751 5748 5742 5737 5736 5734 5731 5729 5727 5724 5722 5719 5715 5713 5711 5708 5702 5699 5698 5695 5691 5687 5684 5681 5678 5676 5672 5669 5666 5663 5660 5656 5653 5650
5717 5726 5738 5744 5750 5753 5755 5752 5752 5752 5748 5744 5737 5733 5730 5727 5724 5722 5720 5717 5714 5710 5706 5703 5702 5699 5696 5693 5690 5687 5682 5679 5676 5673 5671 5668 5665 5663 5659 5656 5653 5650 5646 5642
5712 5724 5731 5737 5741 5744 5747 5748 5748 5746 5743 5739 5733 5729 5726 5722 5718 5716 5713 5710 5707 5702 5698 5695 5693 5691 5689 5686 5683 5678 5674 5671 5668 5666 5663 5660 5657 5655 5652 5650 5647 5644 5640 5637
5707 5720 5721 5726 5736 5740 5738 5738 5738 5736 5732 5732 5729 5725 5721 5716 5713 5709 5706 5703 5699 5695 5692 5689 5686 5683 5681 5679 5675 5671 5666 5663 5661 5658 5655 5652 5649 5647 5646 5644 5642 5640 5637 5633
5721 5727 5727 5730 5733 5735 5733 5733 5733 5730 5728 5724 5722 5720 5716 5710 5707 5703 5700 5696 5692 5689 5686 5683 5679 5676 5674 5672 5669 5664 5660 5657 5654 5651 5648 5645 5642 5639 5636 5635 5634 5632 5630 5627
5723 5723 5718 5722 5723 5726 5727 5728 5726 5724 5722 5719 5715 5712 5708 5704 5700 5696 5692 5689 5687 5683 5678 5675 5672 5669 5668 5666 5662 5658 5655 5652 5649 5645 5643 5640 5637 5634 5631 5628 5626 5624 5622 5620
5717 5717 5714 5717 5719 5719 5721 5719 5715 5712 5711 5709 5707 5704 5700 5696 5692 5689 5687 5684 5680 5675 5672 5669 5665 5662 5662 5659 5655 5651 5648 5645 5642 5639 5637 5634 5631 5628 5625 5622 5619 5616 5614 5612
5711 5712 5712 5710 5709 5710 5711 5710 5706 5703 5703 5701 5698 5696 5694 5691 5687 5684 5680 5677 5672 5667 5664 5661 5658 5656 5655 5652 5648 5644 5641 5641 5638 5633 5630 5626 5623 5620 5616 5614 5612 5609 5607 5605
5703 5700 5700 5700 5701 5702 5703 5703 5702 5699 5697 5695 5693 5691 5688 5684 5679 5675 5672 5670 5666 5662 5658 5655 5652 5651 5649 5645 5641 5637 5634 5632 5631 5626 5622 5619 5615 5612 5610 5607 5605 5603 5601 5601
5704 5703 5702 5701 5699 5697 5696 5697 5696 5694 5692 5690 5689 5685 5680 5676 5671 5668 5665 5663 5659 5654 5652 5649 5647 5644 5642 5639 5635 5631 5627 5624 5621 5617 5615 5612 5608 5606 5603 5600 5598 5596 5594 5593
5699 5697 5696 5696 5696 5694 5692 5691 5691 5689 5688 5685 5681 5677 5673 5670 5666 5662 5658 5654 5649 5645 5643 5642 5641 5637 5634 5632 5628 5624 5620 5616 5613 5610 5607 5604 5601 5598 5595 5593 5591 5588 5587 5585
5691 5691 5690 5689 5690 5688 5686 5686 5685 5682 5681 5678 5673 5669 5665 5662 5659 5655 5650 5646 5643 5640 5638 5635 5633 5630 5628 5625 5623 5618 5614 5610 5606 5602 5599 5596 5593 5590 5588 5585 5583 5581 5580 5578
5682 5683 5682 5680 5680 5681 5680 5679 5677 5673 5671 5669 5665 5661 5657 5654 5651 5647 5642 5638 5637 5635 5632 5629 5626 5623 5620 5617 5615 5611 5607 5603 5599 5596 5593 5589 5586 5583 5581 5579 5577 5575 5573 5571
5672 5672 5673 5673 5672 5671 5671 5671 5668 5666 5662 5659 5656 5654 5650 5646 5643 5639 5637 5634 5632 5629 5625 5622 5619 5616 5614 5611 5608 5605 5601 5597 5593 5589 5586 5583 5580 5577 5574 5572 5570 5568 5566 5564
5662 5663 5664 5664 5664 5663 5663 5661 5660 5657 5654 5651 5648 5646 5643 5641 5638 5633 5628 5628 5626 5623 5619 5615 5613 5610 5608 5604 5601 5598 5594 5590 5587 5583 5580 5576 5573 5571 5569 5567 5564 5562 5560 5558
5653 5654 5654 5655 5656 5654 5651 5651 5652 5650 5648 5646 5643 5640 5637 5633 5631 5629 5627 5624 5621 5617 5612 5609 5606 5603 5600 5596 5593 5590 5586 5583 5580 5577 5574 5571 5568 5565 5563 5560 5558 5556 5554 5552
5645 5646 5647 5646 5645 5644 5644 5644 5643 5641 5639 5637 5636 5634 5632 5629 5626 5623 5621 5618 5614 5610 5606 5603 5600 5597 5593 5589 5586 5582 5579 5576 5573 5571 5568 5565 5563 5560 5557 5555 5553 5551 5548 5546
5639 5639 5640 5640 5640 5639 5638 5637 5634 5632 5631 5628 5627 5626 5624 5623 5620 5617 5614 5611 5607 5604 5600 5596 5593 5590 5587 5583 5579 5576 5573 5570 5567 5565 5562 5560 5557 5554 5552 5550 5547 5545 5542 5540
5630 5632 5632 5633 5633 5633 5633 5631 5629 5627 5626 5624 5621 5620 5618 5616 5613 5611 5608 5604 5600 5597 5593 5590 5587 5584 5581 5578 5574 5571 5568 5565 5562 5560 5557 5554 5551 5549 5546 5544 5541 5538 5536 5534